Tracking 30995 objects as of 7-Jul-2025
HD Live streaming from Space Station
objects crossing your sky now

STARLINK-3505

Track STARLINK-3505 now!
10-day predictions
STARLINK-3505 is classified as:


NORAD ID: 51750
Int'l Code: 2022-016AN
Perigee: 546.0 km
Apogee: 547.8 km
Inclination: 53.2 °
Period: 95.4 minutes
Semi major axis: 6917 km
RCS: Unknown
Launch date: February 21, 2022
Source: United States (US)
Launch site: AIR FORCE EASTERN TEST RANGE (AFETR)
Your satellite tracking list
Your tracking list is empty




NASA's NSSDC Master Catalog

Two Line Element Set (TLE):
1 51750U 22016AN  25187.61997673 -.00000565  00000-0 -17442-4 0  9990
2 51750  53.2183 333.7810 0001340  94.5878 265.5267 15.08841245186552
Source of the keplerian elements: AFSPC